TimeEDT,TemperatureF,Dew PointF,Humidity,Sea Level PressureIn,VisibilityMPH,Wind Direction,Wind SpeedMPH,Gust SpeedMPH,PrecipitationIn,Events,Conditions,WindDirDegrees,DateUTC
12:53 AM,73.0,66.0,79,30.03,10.0,SSW,5.8,-,N/A,,Partly Cloudy,210,2013-08-22 04:53:00
1:45 AM,73.4,66.2,78,30.07,10.0,SW,4.6,-,N/A,Thunderstorm,Overcast,220,2013-08-22 05:45:00
1:53 AM,73.0,66.9,81,30.06,10.0,SSW,5.8,-,N/A,Thunderstorm,Overcast,210,2013-08-22 05:53:00
2:12 AM,73.4,66.2,78,30.09,10.0,Calm,Calm,-,N/A,,Overcast,0,2013-08-22 06:12:00
2:35 AM,73.4,66.2,78,30.11,7.0,NNW,4.6,-,0.00,Rain-Thunderstorm,Light Rain,330,2013-08-22 06:35:00
2:45 AM,73.4,66.2,78,30.11,8.0,North,10.4,18.4,0.01,Rain-Thunderstorm,Light Thunderstorms and Rain,360,2013-08-22 06:45:00
2:53 AM,72.0,66.9,84,30.10,9.0,North,13.8,21.9,0.01,Rain-Thunderstorm,Light Thunderstorms and Rain,360,2013-08-22 06:53:00
3:02 AM,71.6,66.2,83,30.10,9.0,North,8.1,-,0.01,Rain-Thunderstorm,Light Thunderstorms and Rain,10,2013-08-22 07:02:00
3:20 AM,69.8,66.2,88,30.10,7.0,North,5.8,-,0.03,Rain-Thunderstorm,Light Rain,360,2013-08-22 07:20:00
3:41 AM,69.8,66.2,88,30.10,5.0,North,3.5,-,0.08,Rain,Rain,360,2013-08-22 07:41:00
3:53 AM,69.1,66.0,90,30.07,6.0,Calm,Calm,-,0.11,Rain,Rain,0,2013-08-22 07:53:00
4:53 AM,69.1,66.0,90,30.01,9.0,SSW,5.8,-,0.05,,Clear,200,2013-08-22 08:53:00
5:53 AM,66.0,64.9,96,30.02,5.0,WNW,6.9,-,N/A,,Clear,290,2013-08-22 09:53:00
6:53 AM,68.0,66.0,93,30.03,6.0,Calm,Calm,-,N/A,,Partly Cloudy,0,2013-08-22 10:53:00
7:53 AM,69.1,66.0,90,30.05,6.0,SSW,5.8,-,N/A,,Mostly Cloudy,210,2013-08-22 11:53:00
8:53 AM,71.1,68.0,90,30.05,5.0,SSW,5.8,-,N/A,,Clear,200,2013-08-22 12:53:00
9:53 AM,73.9,69.1,85,30.06,8.0,WSW,6.9,-,N/A,,Mostly Cloudy,240,2013-08-22 13:53:00
10:53 AM,77.0,70.0,79,30.06,8.0,WSW,6.9,-,N/A,,Partly Cloudy,250,2013-08-22 14:53:00
11:53 AM,75.9,69.1,79,30.08,10.0,West,10.4,-,N/A,,Mostly Cloudy,270,2013-08-22 15:53:00
12:53 PM,78.1,70.0,76,30.08,10.0,West,6.9,-,N/A,,Partly Cloudy,270,2013-08-22 16:53:00
1:53 PM,78.1,69.1,74,30.08,10.0,West,8.1,-,N/A,,Overcast,280,2013-08-22 17:53:00
2:14 PM,75.2,69.8,83,30.11,10.0,West,15.0,-,N/A,,Overcast,270,2013-08-22 18:14:00
2:26 PM,71.6,66.2,83,30.11,6.0,WNW,19.6,33.4,0.02,Rain-Thunderstorm,Thunderstorms and Rain,300,2013-08-22 18:26:00
2:42 PM,71.6,66.2,83,30.11,9.0,WNW,17.3,23.0,0.02,Rain-Thunderstorm,Light Thunderstorms and Rain,290,2013-08-22 18:42:00
2:53 PM,71.1,68.0,90,30.10,10.0,WNW,17.3,-,0.02,Rain-Thunderstorm,Light Rain,290,2013-08-22 18:53:00
3:09 PM,71.6,68.0,88,30.11,10.0,NW,11.5,24.2,0.00,,Mostly Cloudy,310,2013-08-22 19:09:00
3:31 PM,71.6,68.0,88,30.11,9.0,NW,11.5,-,0.00,Rain,Light Rain,310,2013-08-22 19:31:00
3:45 PM,71.6,66.2,83,30.11,10.0,NW,15.0,23.0,0.00,Rain,Light Rain,320,2013-08-22 19:45:00
3:53 PM,72.0,66.9,84,30.09,10.0,NW,9.2,20.7,0.00,Rain,Light Rain,310,2013-08-22 19:53:00
4:53 PM,72.0,66.9,84,30.06,10.0,NNW,5.8,-,0.00,,Mostly Cloudy,330,2013-08-22 20:53:00
5:53 PM,73.9,66.0,76,30.04,10.0,Calm,Calm,-,N/A,,Scattered Clouds,0,2013-08-22 21:53:00
6:53 PM,73.0,66.0,79,30.03,10.0,ENE,5.8,-,0.01,,Scattered Clouds,60,2013-08-22 22:53:00
7:53 PM,72.0,66.9,84,30.04,10.0,WNW,3.5,-,N/A,,Partly Cloudy,290,2013-08-22 23:53:00
8:53 PM,70.0,66.9,90,30.05,10.0,West,4.6,-,N/A,,Clear,260,2013-08-23 00:53:00
9:53 PM,69.1,66.9,93,30.07,10.0,West,3.5,-,N/A,,Overcast,270,2013-08-23 01:53:00
10:53 PM,69.1,66.0,90,30.08,10.0,West,5.8,-,N/A,,Overcast,280,2013-08-23 02:53:00
11:53 PM,69.1,66.0,90,30.09,10.0,NW,5.8,-,N/A,,Overcast,310,2013-08-23 03:53:00